THOR ABLESTAR DEB, 644

Orbit data source: Space-Track

THOR ABLESTAR DEB, 644 is space debris in LEO originally from a launch on Thu, 29 Jun 1961 UTC launched from the Air Force Eastern Test Range (AFETR). Debris objects in space refer to the collection of defunct objects orbiting the Earth. Examples of debris include non-operational satellites, rocket bodies, and fragments generated from explosions, collisions, or faulty payload assembly.

Loading next visibility...
Identifier
644, 1961-015GV
Orbit
LEO
Country
Flag of USUS
Related business
Manufacturer
Unknown
Mission
Spacecraft
Bus & Motor
Unknown
Mass
Unknown
Launch date (UTC)
1961-06-29 (64 years ago)
Launch vehicle
Unknown
Launch site
Air Force Eastern Test Range (AFETR)
Object type
Payload
Rocket body
Debris
Shape & HBR
Unknown
Radar Cross Section
Small (<0.1 m²)

Expand to show TLE details & history
Last TLE update: 9 hours ago

TLE from 9 hours ago
0 THOR ABLESTAR DEB
1 00644U 61015GV  25242.78580972  .00000628  00000-0  85842-3 0  9994
2 00644  67.0969 242.4854 0145722 319.5807 220.0716 13.60889107158214
Epoch: 2025-08-30T18:51Z
TLE epoch observation values (Epoch: 2025-08-30T18:51:33.959Z)
Latitude
1.20607°
Longitude
159.87176°
Altitude
1,117.67 km
Speed
7.253 km/s
True Right ascension
04h 07m 54s
True Declination
1° 11' 57"
Sunlit
Object was in daylight at epoch
Visualization orbit readout
Latitude
Unknown
Longitude
Unknown
Altitude
Unknown
Speed
Unknown
Apparent Right ascension
Unknown
Apparent Declination
Unknown
Sunlit
N/A
Visualization observer readout
Local Sidereal Time
19:29:46
Azimuth
Unknown
Elevation
Unknown
Doppler factor
Unknown
Orbital elements
Apogee altitude
1,138.811 km
Perigee altitude
922.88 km
Semi-major axis
7,408.983 km
Eccentricity
0.01457
Inclination
67.0969°
RAAN
242.4854°
Arg. of periapsis
319.5807°
True anomaly
219.01149°
Mean anomaly
220.0716°
Eccentric anomaly
219.54007°
Mean motion
3.40334 °/min
Orbital period
105.78 mins
BSTAR
0.00085842
Loading maneuver chart data...
Computing Atmospheric mass density...

Documentation

Showing up to 5 results
|